Bellaire, MI

9:54 AM EDT on April 29, 2017 (GMT -0400)
Antrim County

Weather History for KACB - October, 2013

Change the Weather History Date:

Thursday, October 31, 2013

  Actual Average (KCVX) Record (KCVX)
Temperature  
Mean Temperature 56 °F -  
Max Temperature 61 °F 56 °F 62 °F (2001)
Min Temperature 50 °F 39 °F 30 °F (2014)
Degree Days  
Heating Degree Days 10    
Growing Degree Days 6 (Base 50)    
Moisture  
Dew Point 54 °F    
Average Humidity 95    
Maximum Humidity 98    
Minimum Humidity 78    
Precipitation  
Precipitation 0.00 in - - ()
Sea Level Pressure  
Sea Level Pressure 29.45 in    
Wind  
Wind Speed 2 mph (SSW)    
Max Wind Speed 7 mph    
Max Gust Speed -    
Visibility 6 miles    
Events Rain    
Averages and records for this station are not official NWS values.
T = Trace of Precipitation, MM = Missing Value Source: NWS Daily Summary

Daily Weather History Graph

Daily Weather History Graph

Search for Another Location

Airport or City:

Trip Planner

Search our weather history database for the weather conditions in past years. The results will help you decide how hot, cold, wet, or windy it might be!

Date:

Astronomy

Oct. 31, 2013 Rise Set
Actual Time 8:18 AM EDT 6:29 PM EDT
Civil Twilight 7:47 AM EDT 7:00 PM EDT
Nautical Twilight 7:12 AM EDT 7:35 PM EDT
Astronomical Twilight 6:38 AM EDT 8:09 PM EDT
Moon 4:59 AM EDT (10/31) 4:53 PM EDT (10/31)
Length of Visible Light 11h 12m
Length of Day
10h 11m
Waning Crescent, 10% of the Moon is Illuminated
Oct 31
Waning Crescent
Nov 3
New
Nov 10
First Quarter
Nov 17
Full
Nov 25
Last Quarter

Hourly Weather History & Observations

Time (EDT) Temp. Dew Point Humidity Pressure Visibility Wind Dir Wind Speed Gust Speed Precip Events Conditions
12:14 AM 53.8 °F 47.1 °F 78% 29.82 in 10.0 mi South 3.5 mph - N/A Rain Light Rain
12:35 AM 52.9 °F 48.2 °F 84% 29.81 in 7.0 mi South 4.6 mph - N/A Rain Rain
12:55 AM 52.2 °F 49.1 °F 89% 29.80 in 5.0 mi South 5.8 mph - N/A Rain Rain
1:14 AM 52.0 °F 49.6 °F 92% 29.79 in 5.0 mi SSW 3.5 mph - N/A Rain Rain
1:35 AM 52.2 °F 50.2 °F 93% 29.78 in 5.0 mi South 5.8 mph - N/A Rain Light Rain
1:54 AM 52.5 °F 50.5 °F 93% 29.76 in 7.0 mi South 4.6 mph - N/A   Overcast
2:15 AM 52.9 °F 50.4 °F 91% 29.75 in 7.0 mi South 3.5 mph - N/A   Overcast
2:35 AM 52.3 °F 50.2 °F 92% 29.75 in 5.0 mi SW 3.5 mph - N/A   Overcast
2:54 AM 51.8 °F 50.0 °F 94% 29.75 in 5.0 mi SSW 5.8 mph - N/A   Overcast
3:15 AM 51.8 °F 50.0 °F 94% 29.73 in 5.0 mi Calm Calm - N/A   Overcast
3:35 AM 51.3 °F 49.5 °F 94% 29.72 in 5.0 mi Calm Calm - N/A   Overcast
3:54 AM 51.4 °F 50.0 °F 95% 29.71 in 5.0 mi Calm Calm - N/A   Overcast
4:15 AM 51.3 °F 50.0 °F 95% 29.70 in 5.0 mi Calm Calm - N/A   Overcast
4:35 AM 52.2 °F 50.9 °F 95% 29.69 in 5.0 mi Calm Calm - N/A   Overcast
4:54 AM 52.7 °F 50.9 °F 94% 29.68 in 5.0 mi Calm Calm - N/A   Overcast
5:15 AM 52.0 °F 50.2 °F 94% 29.67 in 5.0 mi Calm Calm - N/A   Overcast
5:35 AM 51.3 °F 50.0 °F 95% 29.66 in 3.0 mi Calm Calm - N/A   Overcast
5:54 AM 51.1 °F 50.0 °F 96% 29.65 in 3.0 mi Calm Calm - N/A   Overcast
6:15 AM 51.1 °F 50.2 °F 97% 29.64 in 2.0 mi Calm Calm - N/A   Overcast
6:35 AM 50.9 °F 50.2 °F 97% 29.64 in 3.0 mi Calm Calm - N/A   Overcast
6:54 AM 51.8 °F 50.9 °F 97% 29.63 in 4.0 mi Calm Calm - N/A   Overcast
7:15 AM 51.8 °F 50.9 °F 97% 29.62 in 3.0 mi Calm Calm - N/A   Overcast
7:34 AM 51.8 °F 50.9 °F 97% 29.61 in 3.0 mi Calm Calm - N/A   Overcast
7:55 AM 52.0 °F 51.1 °F 97% 29.60 in 3.0 mi Calm Calm - N/A   Overcast
8:15 AM 52.2 °F 51.4 °F 97% 29.59 in 1.8 mi Calm Calm - N/A   Overcast
8:34 AM 52.2 °F 51.4 °F 97% 29.58 in 1.2 mi Calm Calm - N/A   Overcast
8:55 AM 52.3 °F 51.6 °F 97% 29.58 in 2.0 mi Calm Calm - N/A   Overcast
9:15 AM 52.7 °F 51.8 °F 97% 29.57 in 2.0 mi Calm Calm - N/A   Drizzle
9:34 AM 52.7 °F 52.0 °F 97% 29.55 in 1.2 mi Calm Calm - N/A Rain Light Rain
9:55 AM 53.4 °F 52.7 °F 97% 29.55 in 1.5 mi Calm Calm - N/A   Drizzle
10:15 AM 54.5 °F 53.6 °F 97% 29.54 in 5.0 mi Calm Calm - N/A Rain Rain
10:34 AM 54.3 °F 53.6 °F 97% 29.53 in 3.0 mi Calm Calm - N/A Rain Light Rain
10:55 AM 54.5 °F 53.8 °F 97% 29.52 in 2.0 mi Calm Calm - N/A Rain Light Rain
11:15 AM 55.2 °F 54.5 °F 97% 29.52 in 7.0 mi Calm Calm - N/A Rain Light Rain
11:34 AM 55.6 °F 54.9 °F 97% 29.50 in 5.0 mi Calm Calm - N/A Rain Rain
11:55 AM 55.8 °F 55.0 °F 97% 29.50 in 5.0 mi Calm Calm - N/A Rain Light Rain
12:14 PM 56.3 °F 55.6 °F 97% 29.49 in 5.0 mi Calm Calm - N/A Rain Light Rain
12:34 PM 57.2 °F 56.3 °F 97% 29.48 in 5.0 mi Calm Calm - N/A Rain Heavy Rain
12:55 PM 58.1 °F 57.2 °F 97% 29.46 in 7.0 mi South 3.5 mph - N/A Rain Rain
1:14 PM 58.5 °F 57.6 °F 97% 29.45 in 10.0 mi Calm Calm - N/A Rain Rain
1:34 PM 59.0 °F 58.1 °F 97% 29.43 in 10.0 mi Calm Calm - N/A   Drizzle
1:55 PM 59.9 °F 58.5 °F 95% 29.41 in 10.0 mi Calm Calm - N/A   Light Drizzle
2:14 PM 60.3 °F 58.8 °F 95% 29.39 in 10.0 mi Calm Calm - N/A   Light Drizzle
2:34 PM 60.8 °F 59.2 °F 94% 29.37 in 10.0 mi Calm Calm - N/A   Light Drizzle
2:55 PM 61.3 °F 59.4 °F 93% 29.36 in 10.0 mi South 3.5 mph - N/A Rain Rain
3:14 PM 60.8 °F 59.0 °F 94% 29.35 in 10.0 mi South 4.6 mph - N/A Rain Light Rain
3:34 PM 60.8 °F 59.0 °F 94% 29.34 in 10.0 mi South 3.5 mph - N/A Rain Light Rain
3:55 PM 60.8 °F 59.0 °F 94% 29.34 in 10.0 mi South 4.6 mph - N/A Rain Rain
4:14 PM 60.4 °F 59.0 °F 95% 29.32 in 7.0 mi SSE 3.5 mph - N/A Rain Light Rain
4:34 PM 60.6 °F 59.0 °F 94% 29.30 in 10.0 mi South 5.8 mph - N/A   Light Drizzle
4:55 PM 60.4 °F 59.0 °F 95% 29.28 in 10.0 mi South 3.5 mph - N/A Rain Rain
5:14 PM 60.1 °F 58.6 °F 95% 29.28 in 10.0 mi South 4.6 mph - N/A Rain Light Rain
5:34 PM 59.9 °F 58.5 °F 95% 29.27 in 7.0 mi Calm Calm - N/A Rain Rain
5:55 PM 59.5 °F 58.5 °F 96% 29.25 in 5.0 mi Calm Calm - N/A Rain Rain
6:14 PM 59.2 °F 58.1 °F 96% 29.24 in 5.0 mi Calm Calm - N/A Rain Rain
6:35 PM 58.8 °F 57.9 °F 97% 29.23 in 1.8 mi Calm Calm - N/A Rain Rain
6:55 PM 58.1 °F 57.2 °F 97% 29.21 in 0.8 mi Calm Calm - N/A Rain Rain
7:14 PM 58.1 °F 57.2 °F 97% 29.21 in 3.0 mi Calm Calm - N/A Rain Rain
7:35 PM 58.3 °F 57.6 °F 97% 29.19 in 4.0 mi Calm Calm - N/A Rain Rain
7:54 PM 59.0 °F 58.3 °F 97% 29.18 in 10.0 mi Calm Calm - N/A Rain Light Rain
8:15 PM 59.0 °F 58.1 °F 97% 29.16 in 10.0 mi Calm Calm - N/A Rain Rain
8:35 PM 57.9 °F 57.2 °F 97% 29.14 in 2.5 mi Calm Calm - N/A Rain Heavy Rain
8:54 PM 57.6 °F 56.8 °F 97% 29.12 in 1.5 mi Calm Calm - N/A Rain Light Rain
9:15 PM 57.7 °F 57.2 °F 98% 29.12 in 2.5 mi Calm Calm - N/A Rain Heavy Rain
9:35 PM 58.3 °F 57.6 °F 97% 29.08 in 5.0 mi Calm Calm - N/A Rain Heavy Rain
9:54 PM 57.9 °F 57.2 °F 97% 29.08 in 5.0 mi Calm Calm - N/A Rain Light Rain
10:15 PM 57.6 °F 57.0 °F 98% 29.08 in 5.0 mi Calm Calm - N/A   Heavy Drizzle
10:35 PM 57.9 °F 57.2 °F 97% 29.06 in 7.0 mi WNW 3.5 mph - N/A Rain Rain
10:54 PM 56.7 °F 56.1 °F 98% 29.05 in 7.0 mi WNW 4.6 mph - N/A Rain Rain
11:15 PM 55.8 °F 55.0 °F 97% 29.05 in 10.0 mi WNW 6.9 mph - N/A   Drizzle
11:35 PM 55.4 °F 54.5 °F 97% 29.04 in 10.0 mi Calm Calm - N/A Rain Light Rain
11:54 PM 54.9 °F 54.1 °F 97% 29.03 in 10.0 mi West 4.6 mph - N/A Rain Rain